Salzburg Flughafen, Austria

7:21 PM CEST on April 30, 2017 (GMT +0200)
Salzburg Flughafen

Weather History for LOWS - May, 2013

Change the Weather History Date:

Wednesday, May 29, 2013

  Actual Average Record
Temperature  
Mean Temperature 50 °F -  
Max Temperature 55 °F 70 °F 93 °F (2008)
Min Temperature 46 °F 52 °F 39 °F (2004)
Degree Days  
Heating Degree Days 14    
Moisture  
Dew Point 45 °F    
Average Humidity 84    
Maximum Humidity 100    
Minimum Humidity 65    
Precipitation  
Precipitation 0.04 in 0.20 in - ()
Sea Level Pressure  
Sea Level Pressure 29.62 in    
Wind  
Wind Speed 6 mph ()    
Max Wind Speed 20 mph    
Max Gust Speed -    
Visibility 7.4 miles    
Events Rain    
Averages and records for this station are not official NWS values.
T = Trace of Precipitation, MM = Missing Value Source: Averaged Metar Reports

Daily Weather History Graph

Daily Weather History Graph

Search for Another Location

Airport or City:

Trip Planner

Search our weather history database for the weather conditions in past years. The results will help you decide how hot, cold, wet, or windy it might be!

Date:

Astronomy

May. 29, 2013 Rise Set
Actual Time 5:15 AM CEST 8:55 PM CEST
Civil Twilight 4:36 AM CEST 9:35 PM CEST
Nautical Twilight 3:43 AM CEST 10:27 PM CEST
Astronomical Twilight 2:30 AM CEST 11:42 PM CEST
Moon No Moon Rise 10:05 AM CEST (5/29)
Length of Visible Light 16h 58m
Length of Day
15h 40m
Waning Gibbous, 76% of the Moon is Illuminated
May 29
Waning Gibbous
May 31
Last Quarter
Jun 8
New
Jun 16
First Quarter
Jun 23
Full

Hourly Weather History & Observations

Time (CEST) Temp. Windchill Dew Point Humidity Pressure Visibility Wind Dir Wind Speed Gust Speed Precip Events Conditions
12:20 AM 53.6 °F - 46.4 °F 77% 29.53 in 6.2 mi SSE 5.8 mph - N/A   Scattered Clouds
12:50 AM 50.0 °F - 46.4 °F 87% 29.56 in 6.2 mi SE 3.5 mph - N/A   Partly Cloudy
1:20 AM 50.0 °F - 46.4 °F 87% 29.56 in 6.2 mi South 4.6 mph - N/A   Scattered Clouds
1:50 AM 51.8 °F - 46.4 °F 82% 29.53 in 6.2 mi South 4.6 mph - N/A   Mostly Cloudy
2:00 AM 51 °F - 47 °F 80% 29.56 in 14 mi South 4.5 mph - -  
2:20 AM 51.8 °F - 46.4 °F 82% 29.56 in 6.2 mi WNW 6.9 mph - N/A   Overcast
2:50 AM 50.0 °F - 46.4 °F 87% 29.56 in 6.2 mi Variable 2.3 mph - N/A   Overcast
3:20 AM 50.0 °F - 46.4 °F 87% 29.56 in 6.2 mi South 4.6 mph - N/A   Overcast
3:50 AM 50.0 °F - 46.4 °F 87% 29.56 in 6.2 mi Variable 1.2 mph - N/A   Mostly Cloudy
4:20 AM 50.0 °F - 46.4 °F 87% 29.56 in 6.2 mi SSE 3.5 mph - N/A   Mostly Cloudy
4:50 AM 50.0 °F - 46.4 °F 87% 29.56 in 6.2 mi Variable 2.3 mph - N/A   Mostly Cloudy
5:00 AM 49 °F - 47 °F 88% 29.57 in 19 mi 2.2 mph - -   Scattered Clouds
5:20 AM 48.2 °F - 46.4 °F 93% 29.56 in 6.2 mi South 5.8 mph - N/A Rain Light Rain
5:50 AM 48.2 °F - 46.4 °F 93% 29.53 in 6.2 mi Variable 1.2 mph - N/A   Mostly Cloudy
6:20 AM 50.0 °F - 48.2 °F 94% 29.56 in 6.2 mi SSW 4.6 mph - N/A   Mostly Cloudy
6:50 AM 50.0 °F - 48.2 °F 94% 29.53 in 6.2 mi Variable 2.3 mph - N/A   Mostly Cloudy
7:20 AM 51.8 °F - 48.2 °F 88% 29.53 in 6.2 mi Variable 2.3 mph - N/A   Mostly Cloudy
7:50 AM 53.6 °F - 50.0 °F 88% 29.56 in 6.2 mi Variable 2.3 mph - N/A   Mostly Cloudy
8:00 AM 53 °F - 49 °F 84% 29.56 in 16 mi 2.2 mph - -   Partly Cloudy
8:20 AM 53.6 °F - 50.0 °F 88% 29.56 in 6.2 mi Variable 2.3 mph - N/A   Mostly Cloudy
8:50 AM 55.4 °F - 50.0 °F 82% 29.56 in 6.2 mi Variable 2.3 mph - N/A   Mostly Cloudy
9:20 AM 51.8 °F - 46.4 °F 82% 29.56 in 6.2 mi WNW 19.6 mph - N/A   Mostly Cloudy
9:50 AM 50.0 °F - 42.8 °F 76% 29.56 in 6.2 mi NW 17.3 mph - N/A   Mostly Cloudy
10:20 AM 50.0 °F - 42.8 °F 76% 29.56 in 6.2 mi NNW 12.7 mph - N/A Rain Light Rain
10:50 AM 50.0 °F - 42.8 °F 76% 29.59 in 6.2 mi NNW 19.6 mph - N/A   Mostly Cloudy
11:00 AM 50 °F - 42 °F 65% 29.60 in 19 mi NNW 20.1 mph - - Rain Light Rain
11:20 AM 50.0 °F - 41.0 °F 71% 29.59 in 6.2 mi NNW 17.3 mph - N/A   Mostly Cloudy
11:50 AM 50.0 °F - 41.0 °F 71% 29.59 in 6.2 mi NW 16.1 mph - N/A   Mostly Cloudy
12:20 PM 50.0 °F - 41.0 °F 71% 29.59 in 6.2 mi NNW 15.0 mph - N/A   Mostly Cloudy
12:50 PM 48.2 °F - 41.0 °F 76% 29.62 in 6.2 mi NNW 17.3 mph - N/A   Mostly Cloudy
1:20 PM 48.2 °F - 41.0 °F 76% 29.62 in 6.2 mi NW 15.0 mph - N/A   Mostly Cloudy
1:50 PM 48.2 °F - 41.0 °F 76% 29.62 in 6.2 mi NW 13.8 mph - N/A   Mostly Cloudy
2:00 PM 48 °F - 41 °F 70% 29.65 in 12 mi NW 13.4 mph - -   Overcast
2:20 PM 48.2 °F - 42.8 °F 82% 29.62 in 6.2 mi NW 12.7 mph - N/A Rain Light Rain Showers
2:50 PM 48.2 °F - 42.8 °F 82% 29.65 in 6.2 mi NW 12.7 mph - N/A   Mostly Cloudy
3:20 PM 48.2 °F - 41.0 °F 76% 29.65 in 6.2 mi NW 11.5 mph - N/A   Mostly Cloudy
3:50 PM 48.2 °F - 41.0 °F 76% 29.65 in 6.2 mi NW 11.5 mph - N/A   Mostly Cloudy
4:20 PM 50.0 °F - 42.8 °F 76% 29.65 in 6.2 mi NW 10.4 mph - N/A   Mostly Cloudy
4:50 PM 48.2 °F - 42.8 °F 82% 29.68 in 6.2 mi NW 11.5 mph - N/A   Mostly Cloudy
5:00 PM 49 °F - 43 °F 71% 29.70 in 19 mi NW 11.2 mph - -   Partly Cloudy
5:20 PM 50.0 °F - 42.8 °F 76% 29.68 in 6.2 mi NW 9.2 mph - N/A   Mostly Cloudy
5:50 PM 48.2 °F - 44.6 °F 87% 29.68 in 6.2 mi NW 9.2 mph - N/A Rain Light Rain Showers
6:20 PM 48.2 °F - 42.8 °F 82% 29.68 in 6.2 mi North 5.8 mph - N/A Rain Light Rain Showers
6:50 PM 46.4 °F 44.3 °F 44.6 °F 93% 29.68 in 6.2 mi NNE 4.6 mph - N/A Rain Light Rain Showers
7:20 PM 46.4 °F - 44.6 °F 93% 29.71 in 6.2 mi Variable 2.3 mph - N/A   Mostly Cloudy
7:50 PM 46.4 °F 45.2 °F 44.6 °F 93% 29.71 in 6.2 mi SE 3.5 mph - N/A   Mostly Cloudy
8:00 PM 47 °F - 45 °F 90% 29.74 in 12 mi SE 4.5 mph - - Rain Light Rain Showers
8:20 PM 46.4 °F 43.5 °F 44.6 °F 93% 29.71 in 6.2 mi SSE 5.8 mph - N/A   Mostly Cloudy
8:50 PM 46.4 °F 43.5 °F 44.6 °F 93% 29.71 in 6.2 mi SE 5.8 mph - N/A   Mostly Cloudy
9:20 PM 46.4 °F 43.5 °F 44.6 °F 93% 29.74 in 6.2 mi SSE 5.8 mph - N/A   Mostly Cloudy
9:50 PM 46.4 °F 45.2 °F 44.6 °F 93% 29.74 in 6.2 mi SE 3.5 mph - N/A   Mostly Cloudy
10:20 PM 46.4 °F 44.3 °F 44.6 °F 93% 29.74 in 6.2 mi SSE 4.6 mph - N/A   Mostly Cloudy
10:50 PM 46.4 °F 44.3 °F 44.6 °F 93% 29.74 in 6.2 mi South 4.6 mph - N/A   Mostly Cloudy
11:20 PM 46.4 °F 45.2 °F 44.6 °F 93% 29.74 in 6.2 mi South 3.5 mph - N/A   Mostly Cloudy
11:50 PM 46.4 °F 44.3 °F 46.4 °F 100% 29.74 in 6.2 mi South 4.6 mph - N/A   Mostly Cloudy